Hays, KS

11:10 PM CDT on October 23, 2017 (GMT -0500)
Hays Regional

Weather History for KHYS - February, 2014

Change the Weather History Date:

Sunday, February 23, 2014

  Actual Average Record
Temperature  
Mean Temperature 24 °F -  
Max Temperature 30 °F 44 °F 71 °F (2002)
Min Temperature 19 °F 22 °F -2 °F (2013)
Degree Days  
Heating Degree Days 40    
Moisture  
Dew Point 17 °F    
Average Humidity 69    
Maximum Humidity 80    
Minimum Humidity 59    
Precipitation  
Precipitation 0.00 in - - ()
Sea Level Pressure  
Sea Level Pressure 30.23 in    
Wind  
Wind Speed 13 mph (NE)    
Max Wind Speed 20 mph    
Max Gust Speed 24 mph    
Visibility 10 miles    
Events      
Averages and records for this station are not official NWS values.
T = Trace of Precipitation, MM = Missing Value Source: NWS Daily Summary

Daily Weather History Graph

Daily Weather History Graph

Search for Another Location

Airport or City:

Trip Planner

Search our weather history database for the weather conditions in past years. The results will help you decide how hot, cold, wet, or windy it might be!

Date:

Astronomy

Feb. 23, 2014 Rise Set
Actual Time 7:17 AM CST 6:23 PM CST
Civil Twilight 6:50 AM CST 6:50 PM CST
Nautical Twilight 6:19 AM CST 7:21 PM CST
Astronomical Twilight 5:49 AM CST 7:52 PM CST
Moon 2:16 AM CST (2/23) 12:29 PM CST (2/23)
Length of Visible Light 11h 59m
Length of Day
11h 05m
Last Quarter, 38% of the Moon is Illuminated
Feb 23
Last Quarter
Mar 1
New
Mar 8
First Quarter
Mar 16
Full
Mar 23
Last Quarter

Hourly Weather History & Observations

Time (CST) Temp. Windchill Dew Point Humidity Pressure Visibility Wind Dir Wind Speed Gust Speed Precip Events Conditions
12:15 AM 30.2 °F 19.8 °F 21.2 °F 69% 30.06 in 10.0 mi ENE 13.8 mph - N/A   Clear
12:35 AM 28.4 °F 17.0 °F 21.2 °F 74% 30.08 in 10.0 mi ENE 15.0 mph - N/A   Clear
12:55 AM 28.4 °F 19.1 °F 19.4 °F 69% 30.09 in 10.0 mi ENE 10.4 mph - N/A   Clear
1:15 AM 28.4 °F 18.5 °F 19.4 °F 69% 30.09 in 10.0 mi ENE 11.5 mph - N/A   Clear
1:35 AM 28.4 °F 19.1 °F 19.4 °F 69% 30.11 in 10.0 mi NE 10.4 mph - N/A   Clear
1:55 AM 26.6 °F 16.2 °F 19.4 °F 74% 30.11 in 10.0 mi NE 11.5 mph - N/A   Clear
2:15 AM 26.6 °F 16.2 °F 19.4 °F 74% 30.12 in 10.0 mi NE 11.5 mph - N/A   Clear
2:35 AM 26.6 °F 19.1 °F 17.6 °F 69% 30.13 in 10.0 mi NNE 6.9 mph - N/A   Clear
2:55 AM 24.8 °F 16.9 °F 17.6 °F 74% 30.13 in 10.0 mi NNE 6.9 mph - N/A   Partly Cloudy
3:15 AM 26.6 °F 16.2 °F 21.2 °F 80% 30.13 in 10.0 mi NE 11.5 mph - N/A   Mostly Cloudy
3:35 AM 28.4 °F 16.6 °F 21.2 °F 74% 30.12 in 10.0 mi NE 16.1 mph - N/A   Overcast
3:55 AM 28.4 °F 15.4 °F 23.0 °F 80% 30.13 in 10.0 mi NE 19.6 mph 24.2 mph N/A   Overcast
4:15 AM 28.4 °F 15.8 °F 21.2 °F 74% 30.13 in 10.0 mi NE 18.4 mph 23.0 mph N/A   Overcast
4:35 AM 26.6 °F 14.3 °F 21.2 °F 80% 30.15 in 10.0 mi NE 16.1 mph - N/A   Overcast
4:55 AM 26.6 °F 14.7 °F 21.2 °F 80% 30.15 in 10.0 mi ENE 15.0 mph - N/A   Overcast
5:15 AM 26.6 °F 13.8 °F 21.2 °F 80% 30.16 in 10.0 mi NE 17.3 mph - N/A   Overcast
5:35 AM 26.6 °F 14.3 °F 19.4 °F 74% 30.17 in 10.0 mi NE 16.1 mph - N/A   Overcast
5:55 AM 26.6 °F 15.7 °F 19.4 °F 74% 30.18 in 10.0 mi NE 12.7 mph - N/A   Overcast
6:15 AM 26.6 °F 14.3 °F 19.4 °F 74% 30.18 in 10.0 mi NE 16.1 mph - N/A   Overcast
6:35 AM 26.6 °F 15.7 °F 19.4 °F 74% 30.18 in 10.0 mi NE 12.7 mph - N/A   Overcast
6:55 AM 26.6 °F 15.7 °F 19.4 °F 74% 30.20 in 10.0 mi NE 12.7 mph - N/A   Overcast
7:15 AM 26.6 °F 15.7 °F 19.4 °F 74% 30.21 in 10.0 mi NE 12.7 mph - N/A   Overcast
7:35 AM 26.6 °F 14.7 °F 19.4 °F 74% 30.21 in 10.0 mi NE 15.0 mph - N/A   Overcast
7:55 AM 26.6 °F 15.2 °F 19.4 °F 74% 30.23 in 10.0 mi NE 13.8 mph - N/A   Overcast
8:15 AM 26.6 °F 15.2 °F 19.4 °F 74% 30.25 in 10.0 mi NNE 13.8 mph - N/A   Overcast
8:35 AM 26.6 °F 14.7 °F 19.4 °F 74% 30.26 in 10.0 mi North 15.0 mph - N/A   Overcast
8:55 AM 26.6 °F 15.2 °F 19.4 °F 74% 30.27 in 10.0 mi NNE 13.8 mph - N/A   Overcast
9:15 AM 26.6 °F 14.7 °F 19.4 °F 74% 30.28 in 10.0 mi NNE 15.0 mph - N/A   Overcast
9:35 AM 26.6 °F 14.3 °F 19.4 °F 74% 30.29 in 10.0 mi NNE 16.1 mph - N/A   Overcast
9:55 AM 26.6 °F 14.3 °F 19.4 °F 74% 30.29 in 10.0 mi NNE 16.1 mph - N/A   Overcast
10:15 AM 26.6 °F 14.7 °F 17.6 °F 69% 30.29 in 10.0 mi NE 15.0 mph - N/A   Overcast
10:35 AM 26.6 °F 15.2 °F 17.6 °F 69% 30.29 in 10.0 mi NE 13.8 mph - N/A   Overcast
10:55 AM 26.6 °F 15.7 °F 19.4 °F 74% 30.29 in 10.0 mi NE 12.7 mph - N/A   Overcast
11:15 AM 26.6 °F 15.2 °F 17.6 °F 69% 30.30 in 10.0 mi NNE 13.8 mph - N/A   Overcast
11:35 AM 26.6 °F 15.7 °F 17.6 °F 69% 30.30 in 10.0 mi NE 12.7 mph - N/A   Overcast
11:55 AM 28.4 °F 17.5 °F 17.6 °F 64% 30.31 in 10.0 mi NE 13.8 mph - N/A   Overcast
12:15 PM 28.4 °F 17.5 °F 19.4 °F 69% 30.29 in 10.0 mi NE 13.8 mph - N/A   Overcast
12:35 PM 28.4 °F 17.0 °F 17.6 °F 64% 30.29 in 10.0 mi ENE 15.0 mph - N/A   Overcast
12:55 PM 28.4 °F 18.0 °F 17.6 °F 64% 30.28 in 10.0 mi NE 12.7 mph - N/A   Overcast
1:15 PM 30.2 °F 20.2 °F 17.6 °F 60% 30.28 in 10.0 mi ENE 12.7 mph 16.1 mph N/A   Overcast
1:35 PM 30.2 °F 20.2 °F 17.6 °F 60% 30.28 in 10.0 mi NE 12.7 mph 18.4 mph N/A   Overcast
1:55 PM 30.2 °F 19.3 °F 17.6 °F 60% 30.27 in 10.0 mi NE 15.0 mph - N/A   Overcast
2:15 PM 30.2 °F 19.8 °F 17.6 °F 60% 30.27 in 10.0 mi NE 13.8 mph - N/A   Overcast
2:35 PM 30.2 °F 20.2 °F 17.6 °F 60% 30.26 in 10.0 mi ENE 12.7 mph - N/A   Overcast
2:55 PM 30.2 °F 21.9 °F 17.6 °F 60% 30.26 in 10.0 mi NE 9.2 mph 16.1 mph N/A   Overcast
3:15 PM 30.2 °F 20.8 °F 17.6 °F 60% 30.25 in 10.0 mi NE 11.5 mph - N/A   Overcast
3:35 PM 30.2 °F 21.3 °F 17.6 °F 60% 30.26 in 10.0 mi NE 10.4 mph - N/A   Overcast
3:55 PM 30.2 °F 20.8 °F 17.6 °F 60% 30.25 in 10.0 mi NE 11.5 mph - N/A   Overcast
4:15 PM 30.2 °F 20.8 °F 17.6 °F 60% 30.25 in 10.0 mi ENE 11.5 mph - N/A   Overcast
4:35 PM 30.2 °F 19.8 °F 17.6 °F 60% 30.25 in 10.0 mi NE 13.8 mph - N/A   Overcast
4:55 PM 30.2 °F 20.2 °F 17.6 °F 60% 30.25 in 10.0 mi NE 12.7 mph - N/A   Mostly Cloudy
5:15 PM 30.2 °F 20.2 °F 17.6 °F 60% 30.25 in 10.0 mi NE 12.7 mph - N/A   Scattered Clouds
5:35 PM 28.4 °F 18.0 °F 15.8 °F 59% 30.25 in 10.0 mi ENE 12.7 mph - N/A   Partly Cloudy
5:55 PM 28.4 °F 18.5 °F 15.8 °F 59% 30.26 in 10.0 mi ENE 11.5 mph - N/A   Scattered Clouds
6:15 PM 26.6 °F 17.5 °F 15.8 °F 64% 30.26 in 10.0 mi ENE 9.2 mph - N/A   Scattered Clouds
6:35 PM 26.6 °F 17.5 °F 14.0 °F 59% 30.26 in 10.0 mi NE 9.2 mph - N/A   Clear
6:55 PM 24.8 °F 15.3 °F 14.0 °F 64% 30.27 in 10.0 mi NE 9.2 mph - N/A   Clear
7:15 PM 24.8 °F 15.3 °F 14.0 °F 64% 30.27 in 10.0 mi NE 9.2 mph - N/A   Clear
7:35 PM 23.0 °F 13.9 °F 14.0 °F 68% 30.27 in 10.0 mi NE 8.1 mph - N/A   Clear
7:55 PM 23.0 °F 13.9 °F 12.2 °F 63% 30.28 in 10.0 mi NE 8.1 mph - N/A   Clear
8:15 PM 21.2 °F 11.7 °F 14.0 °F 74% 30.27 in 10.0 mi NE 8.1 mph - N/A   Clear
8:35 PM 21.2 °F 11.7 °F 12.2 °F 68% 30.28 in 10.0 mi NE 8.1 mph - N/A   Clear
8:55 PM 21.2 °F 12.6 °F 12.2 °F 68% 30.28 in 10.0 mi NE 6.9 mph - N/A   Clear
9:15 PM 19.4 °F 10.4 °F 12.2 °F 74% 30.28 in 10.0 mi NE 6.9 mph - N/A   Clear
9:35 PM 19.4 °F 9.5 °F 12.2 °F 74% 30.29 in 10.0 mi NE 8.1 mph - N/A   Clear
9:55 PM 19.4 °F 9.5 °F 12.2 °F 74% 30.29 in 10.0 mi NE 8.1 mph - N/A   Clear
10:15 PM 19.4 °F 10.4 °F 12.2 °F 74% 30.29 in 10.0 mi NE 6.9 mph - N/A   Clear
10:35 PM 19.4 °F 9.5 °F 12.2 °F 74% 30.29 in 10.0 mi NE 8.1 mph - N/A   Clear
10:55 PM 19.4 °F 8.6 °F 10.4 °F 68% 30.30 in 10.0 mi NE 9.2 mph - N/A   Clear
11:15 PM 19.4 °F 9.5 °F 12.2 °F 74% 30.29 in 10.0 mi NE 8.1 mph - N/A   Clear
11:35 PM 19.4 °F 8.6 °F 10.4 °F 68% 30.28 in 10.0 mi NE 9.2 mph - N/A   Clear
11:55 PM 19.4 °F 10.4 °F 12.2 °F 74% 30.27 in 10.0 mi ENE 6.9 mph - N/A   Clear